Weather History for Pine Belt, MS

Change the Weather History Date:

Friday, January 11, 2013

  Actual Average Record
Temperature  
Mean Temperature 66 °F -  
Max Temperature 71 °F 57 °F 73 °F (2005)
Min Temperature 62 °F 36 °F 23 °F (1997)
Cooling Degree Days 2    
Growing Degree Days 16 (Base 50)    
Moisture  
Dew Point 63 °F    
Average Humidity 90    
Maximum Humidity 94    
Minimum Humidity 83    
Precipitation  
Precipitation 0.00 in - - ()
Sea Level Pressure  
Sea Level Pressure 30.07 in    
Wind  
Wind Speed 8 mph (South)    
Max Wind Speed 13 mph    
Max Gust Speed -    
Visibility 8 miles    
Events      
Averages and records for this station are not official NWS values.
T = Trace of Precipitation, MM = Missing Value Source: NWS Daily Summary

Daily Weather History Graph

Daily Weather History Graph

Search for Another Location

Airport:

Trip Planner

Search our weather history database for the weather conditions in past years. The results will help you decide how hot, cold, wet, or windy it might be!

Date:

Astronomy

Jan. 11, 2013 Rise Set
Actual Time 6:57 AM CST 5:13 PM CST
Civil Twilight 6:31 AM CST 5:40 PM CST
Nautical Twilight 6:01 AM CST 6:09 PM CST
Astronomical Twilight 5:31 AM CST 6:39 PM CST
Moon 6:33 AM CST (1/11) 5:27 PM CST (1/11)
Length of Visible Light 11h 08m
Length of Day
10h 16m
Waning Crescent, 0% of the Moon is Illuminated
Jan 11
Waning Crescent
Jan 11
New
Jan 18
First Quarter
Jan 26
Full
Feb 3
Last Quarter

Hourly Weather History & Observations

Time (CST) Temp. Dew Point Humidity Pressure Visibility Wind Dir Wind Speed Gust Speed Precip Events Conditions
12:15 AM 62.6 °F 59.0 °F 88% 30.10 in 10.0 mi South 9.2 mph - N/A   Overcast
12:35 AM 62.6 °F 59.0 °F 88% 30.10 in 10.0 mi South 9.2 mph - N/A   Mostly Cloudy
12:55 AM 62.6 °F 59.0 °F 88% 30.10 in 10.0 mi South 9.2 mph - N/A   Overcast
1:15 AM 62.6 °F 59.0 °F 88% 30.09 in 10.0 mi South 8.1 mph - N/A   Overcast
1:35 AM 62.6 °F 59.0 °F 88% 30.09 in 10.0 mi South 12.7 mph - N/A   Overcast
1:55 AM 62.6 °F 59.0 °F 88% 30.09 in 10.0 mi South 12.7 mph - N/A   Overcast
2:15 AM 62.6 °F 60.8 °F 94% 30.09 in 10.0 mi South 10.4 mph - N/A   Overcast
2:35 AM 62.6 °F 60.8 °F 94% 30.08 in 3.0 mi South 11.5 mph - N/A   Overcast
2:55 AM 62.6 °F 60.8 °F 94% 30.08 in 5.0 mi South 9.2 mph - N/A   Overcast
3:15 AM 62.6 °F 60.8 °F 94% 30.08 in 6.0 mi South 9.2 mph - N/A   Overcast
3:35 AM 62.6 °F 60.8 °F 94% 30.08 in 10.0 mi South 9.2 mph - N/A   Overcast
3:55 AM 62.6 °F 60.8 °F 94% 30.08 in 9.0 mi South 6.9 mph - N/A   Overcast
4:15 AM 62.6 °F 60.8 °F 94% 30.06 in 5.0 mi South 8.1 mph - N/A   Overcast
4:35 AM 62.6 °F 60.8 °F 94% 30.06 in 9.0 mi South 5.8 mph - N/A   Overcast
4:55 AM 62.6 °F 60.8 °F 94% 30.07 in 10.0 mi South 5.8 mph - N/A   Overcast
5:15 AM 62.6 °F 60.8 °F 94% 30.06 in 7.0 mi South 8.1 mph - N/A   Overcast
5:35 AM 62.6 °F 60.8 °F 94% 30.06 in 7.0 mi South 3.5 mph - N/A   Overcast
6:35 AM 64.4 °F 60.8 °F 88% 30.08 in 5.0 mi South 5.8 mph - N/A   Overcast
6:55 AM 64.4 °F 60.8 °F 88% 30.09 in 8.0 mi South 4.6 mph - N/A   Overcast
7:15 AM 64.4 °F 60.8 °F 88% 30.09 in 7.0 mi SSE 5.8 mph - N/A   Overcast
7:35 AM 64.4 °F 60.8 °F 88% 30.10 in 5.0 mi South 5.8 mph - N/A   Overcast
7:55 AM 64.4 °F 60.8 °F 88% 30.11 in 3.0 mi SSE 5.8 mph - N/A   Overcast
8:15 AM 64.4 °F 62.6 °F 94% 30.11 in 2.5 mi SSE 8.1 mph - N/A   Overcast
8:35 AM 64.4 °F 62.6 °F 94% 30.12 in 4.0 mi SSE 5.8 mph - N/A   Overcast
8:55 AM 64.4 °F 62.6 °F 94% 30.13 in 5.0 mi SSE 6.9 mph - N/A   Overcast
9:15 AM 64.4 °F 62.6 °F 94% 30.12 in 5.0 mi SSE 8.1 mph - N/A   Overcast
9:35 AM 64.4 °F 62.6 °F 94% 30.12 in 8.0 mi South 6.9 mph - N/A   Overcast
9:55 AM 64.4 °F 62.6 °F 94% 30.12 in 7.0 mi South 5.8 mph - N/A   Overcast
10:15 AM 66.2 °F 62.6 °F 88% 30.12 in 7.0 mi South 8.1 mph - N/A   Overcast
10:35 AM 66.2 °F 64.4 °F 94% 30.12 in 8.0 mi South 8.1 mph - N/A   Overcast
10:55 AM 66.2 °F 64.4 °F 94% 30.11 in 6.0 mi South 9.2 mph - N/A   Overcast
11:15 AM 68.0 °F 64.4 °F 88% 30.10 in 10.0 mi South 8.1 mph - N/A   Overcast
11:55 AM 69.8 °F 64.4 °F 83% 30.08 in 10.0 mi South 10.4 mph - N/A   Overcast
12:15 PM 69.8 °F 66.2 °F 88% 30.07 in 5.0 mi South 10.4 mph - N/A   Overcast
12:35 PM 69.8 °F 66.2 °F 88% 30.06 in 10.0 mi South 8.1 mph - N/A   Overcast
12:56 PM 69.8 °F 66.2 °F 88% 30.04 in 10.0 mi South 8.1 mph - N/A   Overcast
1:15 PM 69.8 °F 66.2 °F 88% 30.04 in 10.0 mi South 8.1 mph - N/A   Overcast
1:35 PM 71.6 °F 66.2 °F 83% 30.04 in 10.0 mi SSW 8.1 mph - N/A   Overcast
1:55 PM 71.6 °F 66.2 °F 83% 30.04 in 10.0 mi South 8.1 mph - N/A   Overcast
2:15 PM 71.6 °F 66.2 °F 83% 30.05 in 10.0 mi SSW 6.9 mph - N/A   Overcast
2:35 PM 71.6 °F 66.2 °F 83% 30.04 in 10.0 mi SSW 6.9 mph - N/A   Overcast
2:55 PM 71.6 °F 66.2 °F 83% 30.05 in 9.0 mi SSW 5.8 mph - N/A   Overcast
3:15 PM 69.8 °F 66.2 °F 88% 30.05 in 3.0 mi South 4.6 mph - N/A   Overcast
3:35 PM 69.8 °F 66.2 °F 88% 30.04 in 7.0 mi South 5.8 mph - N/A   Mostly Cloudy
3:55 PM 69.8 °F 66.2 °F 88% 30.04 in 10.0 mi South 4.6 mph - N/A   Overcast
4:15 PM 69.8 °F 64.4 °F 83% 30.04 in 10.0 mi South 4.6 mph - N/A   Mostly Cloudy
4:35 PM 68.0 °F 64.4 °F 88% 30.04 in 10.0 mi South 3.5 mph - N/A   Overcast
4:55 PM 68.0 °F 64.4 °F 88% 30.05 in 10.0 mi South 3.5 mph - N/A   Overcast
5:15 PM 66.2 °F 64.4 °F 94% 30.05 in 3.0 mi South 4.6 mph - N/A   Overcast
5:35 PM 66.2 °F 64.4 °F 94% 30.05 in 7.0 mi Calm Calm - N/A   Overcast
5:55 PM 66.2 °F 64.4 °F 94% 30.05 in 3.0 mi Calm Calm - N/A   Mostly Cloudy
6:15 PM 66.2 °F 64.4 °F 94% 30.06 in 4.0 mi West 10.4 mph - N/A   Partly Cloudy
6:35 PM 68.0 °F 64.4 °F 88% 30.07 in 10.0 mi SSW 5.8 mph - N/A   Mostly Cloudy
6:55 PM 66.2 °F 64.4 °F 94% 30.06 in 8.0 mi SSE 8.1 mph - N/A   Mostly Cloudy
7:35 PM 68.0 °F 64.4 °F 88% 30.06 in 10.0 mi South 9.2 mph - N/A   Mostly Cloudy
7:55 PM 68.0 °F 64.4 °F 88% 30.06 in 10.0 mi South 6.9 mph - N/A   Mostly Cloudy
8:15 PM 66.2 °F 64.4 °F 94% 30.07 in 10.0 mi South 8.1 mph - N/A   Mostly Cloudy
8:35 PM 68.0 °F 64.4 °F 88% 30.06 in 10.0 mi SSE 4.6 mph - N/A   Mostly Cloudy
8:55 PM 66.2 °F 64.4 °F 94% 30.07 in 8.0 mi SSW 4.6 mph - N/A   Mostly Cloudy
9:15 PM 68.0 °F 64.4 °F 88% 30.07 in 5.0 mi SSE 6.9 mph - N/A   Mostly Cloudy
9:35 PM 68.0 °F 64.4 °F 88% 30.06 in 10.0 mi SSE 10.4 mph - N/A   Mostly Cloudy
9:55 PM 66.2 °F 64.4 °F 94% 30.06 in 10.0 mi SSE 8.1 mph - N/A   Mostly Cloudy
10:35 PM 68.0 °F 64.4 °F 88% 30.06 in 10.0 mi South 9.2 mph - N/A   Mostly Cloudy
10:55 PM 66.2 °F 64.4 °F 94% 30.06 in 10.0 mi SSE 9.2 mph - N/A   Scattered Clouds
11:15 PM 66.2 °F 64.4 °F 94% 30.06 in 10.0 mi South 6.9 mph - N/A   Mostly Cloudy
11:35 PM 66.2 °F 64.4 °F 94% 30.06 in 10.0 mi SSE 6.9 mph - N/A   Overcast
11:55 PM 66.2 °F 64.4 °F 94% 30.05 in 3.0 mi SSE 8.1 mph - N/A   Overcast